YC0TBU-11 Weather Reports


time (UTC)temp
F
wind
direction
speed
knots
gust
knots
rain 1hr
in
rain 24hr
in
rain mn
in
humidity
%
barometer
mb
20260503003604 94 0.0 0.0 0.00 0.00 0.00 48 1011.7
20260503000604 95 0.0 0.0 0.00 0.00 0.00 47 1011.0
20260502233609 95 0.0 0.0 0.00 0.00 0.00 47 1010.9
20260502230552 95 0.0 0.0 0.00 0.00 0.00 47 1010.6
20260502223530 95 0.0 0.0 0.00 0.00 0.00 48 1010.2
20260502220530 95 0.0 0.0 0.00 0.00 0.00 48 1010.1
20260502213530 95 0.0 0.0 0.00 0.00 0.00 47 1010.2
20260502210530 95 0.0 0.0 0.00 0.00 0.00 48 1010.3
20260502203530 96 0.0 0.0 0.00 0.00 0.00 48 1010.3
20260502200530 95 0.0 0.0 0.00 0.00 0.00 48 1010.5
20260502193530 95 0.0 0.0 0.00 0.00 0.00 49 1010.5
20260502190530 93 0.0 0.0 0.00 0.00 0.00 52 1010.5
20260502183530 93 0.0 0.0 0.00 0.00 0.00 51 1010.8
20260502180530 93 0.0 0.0 0.00 0.00 0.00 51 1011.1
20260502163535 93 0.0 0.0 0.00 0.00 0.00 51 1011.6
20260502160513 93 0.0 0.0 0.00 0.00 0.00 51 1011.7
20260502150456 94 0.0 0.0 0.00 0.00 0.00 50 992.9
20260502130456 95 0.0 0.0 0.00 0.00 0.00 48 1011.2
20260502123456 96 0.0 0.0 0.00 0.00 0.00 48 1010.8
20260502120457 95 0.0 0.0 0.00 0.00 0.00 49 1010.2
20260502113502 95 0.0 0.0 0.00 0.00 0.00 49 1009.9
20260502110439 95 0.0 0.0 0.00 0.00 0.00 50 1009.4
20260502103439 96 0.0 0.0 0.00 0.00 0.00 49 1009.7
20260502100439 95 0.0 0.0 0.00 0.00 0.00 49 1009.6
20260502090439 97 0.0 0.0 0.00 0.00 0.00 47 1009.2
20260502070422 102 0.0 0.0 0.00 0.00 0.00 39 1009.3
20260502063422 101 0.0 0.0 0.00 0.00 0.00 40 1009.8
20260502060427 103 0.0 0.0 0.00 0.00 0.00 37 1010.0
20260502053405 103 0.0 0.0 0.00 0.00 0.00 37 1010.6
20260502050405 102 0.0 0.0 0.00 0.00 0.00 37 1011.1
20260502043405 102 0.0 0.0 0.00 0.00 0.00 38 1011.7
20260502040405 101 0.0 0.0 0.00 0.00 0.00 39 1012.4
20260502033405 101 0.0 0.0 0.00 0.00 0.00 39 1012.7
20260502030405 99 0.0 0.0 0.00 0.00 0.00 40 1012.9
20260502023405 98 0.0 0.0 0.00 0.00 0.00 42 1012.8
20260502020405 97 0.0 0.0 0.00 0.00 0.00 43 1012.8
20260502013405 94 0.0 0.0 0.00 0.00 0.00 46 1012.5
20260502010405 94 0.0 0.0 0.00 0.00 0.00 47 1012.2